Home   Weather   Kirkenes   Past weeks

Flag for Norway Past Weather in Kirkenes, Norway — Yesterday and Last 2 Weeks

Now
47 °F

Cool.


Feels Like: 44 °F
Forecast: 44 / 56 °F
Wind: 6 mph from North

Location: Kirkenes Lufthavn

Current Time: Jul 21, 2017 at 2:55:37 am

Latest Report: Jul 21, 2017 at 2:00 am


Visibility: N/A

Pressure: 30.08 "Hg

Humidity: 84%

Dew Point: 42 °F

Location of KirkenesLocation

Past Weather in Kirkenes — Graph

°F

Kirkenes Temperature Yesterday

Maximum temperature yesterday: 52 °F (at 10:00 am)
Minimum temperature yesterday: 48 °F (at 11:00 pm)
Average temperature yesterday: 51 °F

High & Low Weather Summary for the Past Weeks

 TemperatureHumidityPressure
High74 °F (Jul 10, 6:00 pm)97% (Jul 19, 8:00 pm)30.07 "Hg (Jul 19, 8:00 pm)
Low40 °F (Jul 7, 4:00 am)30% (Jul 10, 4:00 pm)29.35 "Hg (Jul 13, 8:00 am)
Average57 °F71%29.80 "Hg
* Reported Jul 6 1:00 am — Jul 21 1:00 am, Kirkenes. Weather by CustomWeather, © 2017

Note: Actual official high and low records may vary slightly from our data, if they occured in-between our weather recording intervals... More about our weather records

Advertising

Kirkenes Weather History for the Previous 24 Hours

Scroll right to see more
 ConditionsComfort  
Time TempWeatherWind HumidityBarometerVisibility
1:00 am
Fri, Jul 21
47 °FCool.5 mph83%30.07 "HgN/A
12:00 am48 °FCool.5 mph80%30.07 "HgN/A
11:00 pm
Thu, Jul 20
48 °FCool.5 mph81%30.07 "HgN/A
10:00 pm49 °FCool.5 mph79%30.06 "HgN/A
9:00 pm49 °FCool.5 mph78%30.06 "HgN/A
8:00 pm50 °FCool.5 mph78%30.06 "HgN/A
7:00 pm51 °FCool.6 mph76%30.04 "HgN/A
6:00 pm52 °FCool.3 mph73%30.04 "HgN/A
5:00 pm51 °FCool.5 mph74%30.03 "HgN/A
4:00 pm52 °FCool.3 mph75%30.03 "HgN/A
3:00 pm51 °FCool.5 mph75%30.02 "HgN/A
1:00 pm51 °FCool.5 mph77%30.02 "HgN/A
12:00 pm51 °FCool.6 mph76%30.02 "HgN/A
11:00 am51 °FCool.5 mph77%30.01 "HgN/A
10:00 am52 °FCool.3 mph78%30.00 "HgN/A
9:00 am52 °FCool.2 mph80%29.99 "HgN/A
8:00 am51 °FCool.3 mph85%29.98 "HgN/A
5:00 am50 °FCool.2 mph90%29.96 "HgN/A
2:00 am50 °FCool.3 mph89%29.95 "HgN/A
Weather by CustomWeather, © 2017

See weather overviewHow to use our weather pages